Time,TemperatureF,DewpointF,PressureIn,WindDirection,WindDirectionDegrees,WindSpeedMPH,WindSpeedGustMPH,Humidity,HourlyPrecipIn,Conditions,Clouds,dailyrainin,SoftwareType,DateUTC
2013-03-03 00:10:00,44.5,29.0,29.78,WSW,251,1.0,6.0,56,0.00,,,0.00,weatherlink.com 1.10,2013-03-03 07:10:00,
2013-03-03 00:25:00,44.5,30.0,29.78,WSW,248,0.0,0.0,57,0.00,,,0.00,weatherlink.com 1.10,2013-03-03 07:25:00,
2013-03-03 00:40:00,44.6,30.0,29.78,WSW,238,0.0,0.0,57,0.00,,,0.00,weatherlink.com 1.10,2013-03-03 07:40:00,
2013-03-03 00:55:00,44.2,31.0,29.76,SE,129,3.0,6.0,61,0.00,,,0.00,weatherlink.com 1.10,2013-03-03 07:55:00,
2013-03-03 01:10:00,44.9,32.0,29.75,SSE,153,2.0,8.0,62,0.00,,,0.00,weatherlink.com 1.10,2013-03-03 08:10:00,
2013-03-03 01:25:00,45.0,32.0,29.75,SSE,162,2.0,5.0,61,0.00,,,0.00,weatherlink.com 1.10,2013-03-03 08:25:00,
2013-03-03 01:40:00,44.4,32.0,29.74,West,262,2.0,5.0,62,0.00,,,0.00,weatherlink.com 1.10,2013-03-03 08:40:00,
2013-03-03 01:55:00,43.6,32.0,29.74,SSW,197,0.0,6.0,65,0.00,,,0.00,weatherlink.com 1.10,2013-03-03 08:55:00,
2013-03-03 02:10:00,43.2,32.0,29.73,SE,138,0.0,6.0,66,0.00,,,0.00,weatherlink.com 1.10,2013-03-03 09:10:00,
2013-03-03 02:25:00,43.7,33.0,29.73,South,169,1.0,5.0,66,0.00,,,0.00,weatherlink.com 1.10,2013-03-03 09:25:00,
2013-03-03 02:40:00,43.6,32.0,29.73,SSE,152,6.0,7.0,65,0.00,,,0.00,weatherlink.com 1.10,2013-03-03 09:40:00,
2013-03-03 02:55:00,42.7,33.0,29.73,SE,143,7.0,10.0,68,0.00,,,0.00,weatherlink.com 1.10,2013-03-03 09:55:00,
2013-03-03 03:10:00,42.9,32.0,29.70,SSE,161,3.0,11.0,66,0.00,,,0.00,weatherlink.com 1.10,2013-03-03 10:10:00,
2013-03-03 03:25:00,43.5,32.0,29.70,South,171,2.0,5.0,65,0.00,,,0.00,weatherlink.com 1.10,2013-03-03 10:25:00,
2013-03-03 03:40:00,44.1,32.0,29.69,SSE,162,7.0,9.0,62,0.00,,,0.00,weatherlink.com 1.10,2013-03-03 10:40:00,
2013-03-03 03:55:00,43.7,31.0,29.69,SSE,159,4.0,8.0,61,0.00,,,0.00,weatherlink.com 1.10,2013-03-03 10:55:00,
2013-03-03 04:10:00,43.8,31.0,29.68,SSE,163,0.0,10.0,60,0.00,,,0.00,weatherlink.com 1.10,2013-03-03 11:10:00,
2013-03-03 04:25:00,43.4,30.0,29.68,SSE,163,2.0,4.0,60,0.00,,,0.00,weatherlink.com 1.10,2013-03-03 11:25:00,
2013-03-03 04:40:00,43.3,30.0,29.68,WSW,247,1.0,6.0,60,0.00,,,0.00,weatherlink.com 1.10,2013-03-03 11:40:00,
2013-03-03 04:55:00,42.9,31.0,29.68,SSE,163,3.0,9.0,64,0.00,,,0.00,weatherlink.com 1.10,2013-03-03 11:55:00,
2013-03-03 05:10:00,42.5,31.0,29.68,SE,146,6.0,10.0,65,0.00,,,0.00,weatherlink.com 1.10,2013-03-03 12:10:00,
2013-03-03 05:25:00,42.1,31.0,29.66,SSE,153,4.0,11.0,65,0.00,,,0.00,weatherlink.com 1.10,2013-03-03 12:25:00,
2013-03-03 05:40:00,41.9,31.0,29.67,SSE,157,7.0,10.0,65,0.00,,,0.00,weatherlink.com 1.10,2013-03-03 12:40:00,
2013-03-03 05:55:00,42.3,30.0,29.67,SSW,210,6.0,10.0,63,0.00,,,0.00,weatherlink.com 1.10,2013-03-03 12:55:00,
2013-03-03 06:10:00,42.4,30.0,29.66,SSE,160,5.0,9.0,62,0.00,,,0.00,weatherlink.com 1.10,2013-03-03 13:10:00,
2013-03-03 06:26:00,42.9,29.0,29.66,South,178,2.0,6.0,58,0.00,,,0.00,weatherlink.com 1.10,2013-03-03 13:26:00,
2013-03-03 06:41:00,42.9,30.0,29.63,SE,133,10.0,15.0,60,0.00,,,0.00,weatherlink.com 1.10,2013-03-03 13:41:00,
2013-03-03 06:56:00,42.6,31.0,29.63,SSE,148,6.0,14.0,63,0.00,,,0.00,weatherlink.com 1.10,2013-03-03 13:56:00,
2013-03-03 07:11:00,42.2,30.0,29.63,SE,129,7.0,19.0,63,0.00,,,0.00,weatherlink.com 1.10,2013-03-03 14:11:00,
2013-03-03 07:26:00,42.5,30.0,29.63,SSE,155,2.0,19.0,62,0.00,,,0.00,weatherlink.com 1.10,2013-03-03 14:26:00,
2013-03-03 07:41:00,42.6,30.0,29.63,SSE,163,9.0,14.0,61,0.00,,,0.00,weatherlink.com 1.10,2013-03-03 14:41:00,
2013-03-03 07:56:00,42.9,28.0,29.62,SSE,155,0.0,13.0,57,0.00,,,0.00,weatherlink.com 1.10,2013-03-03 14:56:00,
2013-03-03 08:11:00,42.7,29.0,29.62,SSE,155,7.0,12.0,58,0.00,,,0.00,weatherlink.com 1.10,2013-03-03 15:11:00,
2013-03-03 08:26:00,42.3,28.0,29.62,SE,134,8.0,13.0,58,0.00,,,0.00,weatherlink.com 1.10,2013-03-03 15:26:00,
2013-03-03 08:41:00,42.1,29.0,29.63,WSW,253,10.0,16.0,60,0.00,,,0.00,weatherlink.com 1.10,2013-03-03 15:41:00,
2013-03-03 08:56:00,41.7,29.0,29.65,NW,304,4.0,12.0,61,0.00,,,0.00,weatherlink.com 1.10,2013-03-03 15:56:00,
2013-03-03 09:11:00,41.3,29.0,29.66,WSW,254,3.0,5.0,61,0.00,,,0.00,weatherlink.com 1.10,2013-03-03 16:11:00,
2013-03-03 09:26:00,40.6,24.0,29.67,WNW,290,14.0,25.0,51,0.00,,,0.00,weatherlink.com 1.10,2013-03-03 16:26:00,
2013-03-03 09:41:00,40.6,23.0,29.67,West,261,3.0,10.0,50,0.00,,,0.00,weatherlink.com 1.10,2013-03-03 16:41:00,
2013-03-03 09:56:00,40.9,21.0,29.66,WNW,290,6.0,17.0,45,0.00,,,0.00,weatherlink.com 1.10,2013-03-03 16:56:00,
2013-03-03 10:11:00,40.9,19.0,29.66,West,279,3.0,19.0,41,0.00,,,0.00,weatherlink.com 1.10,2013-03-03 17:11:00,
2013-03-03 10:26:00,40.5,18.0,29.67,West,267,7.0,19.0,40,0.00,,,0.00,weatherlink.com 1.10,2013-03-03 17:26:00,
2013-03-03 10:41:00,39.8,14.0,29.68,West,268,11.0,15.0,35,0.00,,,0.00,weatherlink.com 1.10,2013-03-03 17:41:00,
2013-03-03 10:56:00,39.0,11.0,29.69,NNW,331,18.0,30.0,31,0.00,,,0.00,weatherlink.com 1.10,2013-03-03 17:56:00,
2013-03-03 11:11:00,38.5,10.0,29.68,WNW,288,26.0,26.0,31,0.00,,,0.00,weatherlink.com 1.10,2013-03-03 18:11:00,
2013-03-03 11:26:00,38.5,10.0,29.69,West,273,13.0,31.0,31,0.00,,,0.00,weatherlink.com 1.10,2013-03-03 18:26:00,
2013-03-03 11:41:00,39.5,10.0,29.70,West,271,10.0,19.0,30,0.00,,,0.00,weatherlink.com 1.10,2013-03-03 18:41:00,
2013-03-03 11:56:00,39.0,11.0,29.69,WNW,291,18.0,25.0,32,0.00,,,0.00,weatherlink.com 1.10,2013-03-03 18:56:00,
2013-03-03 12:11:00,39.4,9.0,29.70,West,265,36.0,44.0,28,0.00,,,0.00,weatherlink.com 1.10,2013-03-03 19:11:00,
2013-03-03 12:26:00,39.5,10.0,29.68,WSW,252,25.0,35.0,30,0.00,,,0.00,weatherlink.com 1.10,2013-03-03 19:26:00,
2013-03-03 12:41:00,39.7,11.0,29.66,West,267,30.0,34.0,31,0.00,,,0.00,weatherlink.com 1.10,2013-03-03 19:41:00,
2013-03-03 12:56:00,39.2,8.0,29.66,WNW,283,12.0,41.0,28,0.00,,,0.00,weatherlink.com 1.10,2013-03-03 19:56:00,
2013-03-03 13:11:00,40.3,11.0,29.67,West,277,10.0,19.0,30,0.00,,,0.00,weatherlink.com 1.10,2013-03-03 20:11:00,
2013-03-03 13:26:00,40.0,11.0,29.68,West,259,15.0,32.0,30,0.00,,,0.00,weatherlink.com 1.10,2013-03-03 20:26:00,
2013-03-03 13:41:00,39.6,13.0,29.68,SSE,156,9.0,28.0,34,0.00,,,0.00,weatherlink.com 1.10,2013-03-03 20:41:00,
2013-03-03 13:56:00,39.4,12.0,29.69,West,262,10.0,33.0,32,0.00,,,0.00,weatherlink.com 1.10,2013-03-03 20:56:00,
2013-03-03 14:11:00,39.9,13.0,29.69,WNW,293,13.0,24.0,33,0.00,,,0.00,weatherlink.com 1.10,2013-03-03 21:11:00,
2013-03-03 14:26:00,39.3,12.0,29.71,West,273,10.0,30.0,32,0.00,,,0.00,weatherlink.com 1.10,2013-03-03 21:26:00,
2013-03-03 14:41:00,38.6,12.0,29.71,WNW,298,11.0,34.0,34,0.00,,,0.00,weatherlink.com 1.10,2013-03-03 21:41:00,
2013-03-03 14:56:00,39.0,13.0,29.71,SW,235,3.0,30.0,35,0.00,,,0.00,weatherlink.com 1.10,2013-03-03 21:56:00,
2013-03-03 15:11:00,38.7,12.0,29.73,NW,319,11.0,23.0,34,0.00,,,0.00,weatherlink.com 1.10,2013-03-03 22:11:00,
2013-03-03 15:26:00,39.0,12.0,29.74,West,279,13.0,19.0,33,0.00,,,0.00,weatherlink.com 1.10,2013-03-03 22:26:00,
2013-03-03 15:41:00,37.9,12.0,29.76,West,281,6.0,28.0,34,0.00,,,0.00,weatherlink.com 1.10,2013-03-03 22:41:00,
2013-03-03 15:56:00,37.7,12.0,29.77,West,270,11.0,19.0,35,0.00,,,0.00,weatherlink.com 1.10,2013-03-03 22:56:00,
2013-03-03 16:11:00,37.4,12.0,29.77,West,281,14.0,16.0,35,0.00,,,0.00,weatherlink.com 1.10,2013-03-03 23:11:00,
2013-03-03 16:26:00,37.3,12.0,29.79,NW,304,16.0,19.0,36,0.00,,,0.00,weatherlink.com 1.10,2013-03-03 23:26:00,
2013-03-03 16:41:00,37.2,13.0,29.80,WSW,257,15.0,26.0,37,0.00,,,0.00,weatherlink.com 1.10,2013-03-03 23:41:00,
2013-03-03 16:56:00,36.7,13.0,29.81,West,277,13.0,15.0,38,0.00,,,0.00,weatherlink.com 1.10,2013-03-03 23:56:00,
2013-03-03 17:11:00,36.1,13.0,29.81,WNW,287,12.0,17.0,39,0.00,,,0.00,weatherlink.com 1.10,2013-03-04 00:11:00,
2013-03-03 17:26:00,35.9,14.0,29.82,NW,309,1.0,18.0,40,0.00,,,0.00,weatherlink.com 1.10,2013-03-04 00:26:00,
2013-03-03 17:42:00,35.6,14.0,29.83,West,277,3.0,6.0,41,0.00,,,0.00,weatherlink.com 1.10,2013-03-04 00:42:00,
2013-03-03 17:57:00,35.6,13.0,29.84,NW,322,9.0,15.0,40,0.00,,,0.00,weatherlink.com 1.10,2013-03-04 00:57:00,
2013-03-03 18:12:00,31.6,19.0,29.87,NNE,17,18.0,18.0,61,0.00,,,0.00,weatherlink.com 1.10,2013-03-04 01:12:00,
2013-03-03 18:27:00,29.5,20.0,29.90,NNE,31,8.0,17.0,68,0.00,,,0.00,weatherlink.com 1.10,2013-03-04 01:27:00,
2013-03-03 18:42:00,28.8,20.0,29.92,NNE,13,12.0,19.0,70,0.00,,,0.00,weatherlink.com 1.10,2013-03-04 01:42:00,
2013-03-03 18:57:00,28.3,21.0,29.94,NNW,337,11.0,20.0,73,0.00,,,0.00,weatherlink.com 1.10,2013-03-04 01:57:00,
2013-03-03 19:12:00,27.1,21.0,29.96,NNW,343,8.0,21.0,77,0.00,,,0.00,weatherlink.com 1.10,2013-03-04 02:12:00,
2013-03-03 19:27:00,25.9,21.0,29.98,NW,326,12.0,16.0,82,0.00,,,0.00,weatherlink.com 1.10,2013-03-04 02:27:00,
2013-03-03 19:42:00,25.3,21.0,30.00,NNW,342,12.0,21.0,84,0.00,,,0.00,weatherlink.com 1.10,2013-03-04 02:42:00,
2013-03-03 19:57:00,25.3,20.0,30.01,NW,323,18.0,21.0,81,0.00,,,0.00,weatherlink.com 1.10,2013-03-04 02:57:00,
2013-03-03 20:12:00,25.5,19.0,30.02,NW,324,13.0,29.0,77,0.00,,,0.00,weatherlink.com 1.10,2013-03-04 03:12:00,
2013-03-03 20:27:00,26.7,17.0,30.02,NW,306,20.0,24.0,67,0.00,,,0.00,weatherlink.com 1.10,2013-03-04 03:27:00,
2013-03-03 20:42:00,26.8,17.0,30.04,NNW,334,19.0,24.0,66,0.00,,,0.00,weatherlink.com 1.10,2013-03-04 03:42:00,
2013-03-03 20:57:00,26.6,17.0,30.05,NW,323,9.0,22.0,66,0.00,,,0.00,weatherlink.com 1.10,2013-03-04 03:57:00,
2013-03-03 21:12:00,26.4,16.0,30.05,NW,315,19.0,20.0,66,0.00,,,0.00,weatherlink.com 1.10,2013-03-04 04:12:00,
2013-03-03 21:27:00,26.3,16.0,30.06,NW,311,10.0,25.0,66,0.00,,,0.00,weatherlink.com 1.10,2013-03-04 04:27:00,
2013-03-03 21:42:00,26.3,16.0,30.08,NNW,344,12.0,17.0,66,0.00,,,0.00,weatherlink.com 1.10,2013-03-04 04:42:00,
2013-03-03 21:57:00,26.3,16.0,30.08,NNW,334,11.0,18.0,64,0.00,,,0.00,weatherlink.com 1.10,2013-03-04 04:57:00,
2013-03-03 22:12:00,26.3,16.0,30.09,NNW,345,12.0,26.0,64,0.00,,,0.00,weatherlink.com 1.10,2013-03-04 05:12:00,
2013-03-03 22:27:00,26.1,16.0,30.10,NNW,340,9.0,16.0,66,0.00,,,0.00,weatherlink.com 1.10,2013-03-04 05:27:00,
2013-03-03 22:42:00,25.9,16.0,30.10,North,355,13.0,20.0,67,0.00,,,0.00,weatherlink.com 1.10,2013-03-04 05:42:00,
2013-03-03 22:57:00,25.9,16.0,30.10,NW,313,11.0,20.0,67,0.00,,,0.00,weatherlink.com 1.10,2013-03-04 05:57:00,
2013-03-03 23:12:00,25.6,17.0,30.11,NW,323,21.0,26.0,70,0.00,,,0.00,weatherlink.com 1.10,2013-03-04 06:12:00,
2013-03-03 23:27:00,24.9,18.0,30.11,NW,315,13.0,27.0,74,0.00,,,0.00,weatherlink.com 1.10,2013-03-04 06:27:00,
2013-03-03 23:43:00,24.6,19.0,30.12,NNW,329,10.0,26.0,78,0.00,,,0.00,weatherlink.com 1.10,2013-03-04 06:43:00,
2013-03-03 23:58:00,23.4,19.0,30.14,NW,319,7.0,17.0,82,0.00,,,0.00,weatherlink.com 1.10,2013-03-04 06:58:00,